Weather in Asha

Russia / Chelyabinsk Oblast     54°59′26″N   57°16′42″E
temp.,
°C
wind,
m/s
gust,
m/s
humid.,
%
clouds,
%
prec.,
mm/h
press.,
hPa
HPBL,
m
16 june, wed
wed1623:00+18e21898 0.0 101611
02:00+16ene22945 0.0 101523
05:00+15ene34935 0.0 101569
08:00+22e246197 0.0 1014151
11:00+30sse263232 0.0 10131460
14:00+32wsw5821100 0.0 10123678
17:00+29sw51039100 0.0 10111463
20:00+24sse3865100 0.0 1011301
17 june, thu
thu1723:00+17sw3981100 0.1 1013246
02:00+15se2293100 0.8 101033
05:00+15sse2288100 0.9 100934
08:00+19sw27775 0.0 1008380
11:00+23wsw4662100 0.2 10071018
14:00+21w369060 2.3 1007727
17:00+20nw489579 6.8 1008639
20:00+15nw288849 0.5 1011427
18 june, fri
fri1823:00+12w11965 0.6 101211
02:00+12nnw2689100 0.1 1013213
05:00+10nnw25845 0.1 1015152
08:00+14n37652 0.0 1016687
11:00+18n57342 0.0 10171877
14:00+21n47305 0.0 10182644
17:00+20nnw67305 0.0 10192536
20:00+17nnw48444 0.0 10201034
19 june, sat
sat1923:00+10nnw11585 0.0 102311
02:00+9w1163100 0.0 102310
05:00+10sw2371100 0.0 102493
08:00+13wsw246583 0.0 1024349
11:00+19wnw464931 0.0 10221229
14:00+21wnw684445 0.0 10211762
17:00+22wnw585348 0.1 10201635
20:00+18w238269 0.3 101995
20 june, sun
sun2023:00+16wsw119619 0.6 101929
02:00+14ssw239933 0.1 101961
05:00+14ssw2510052 0.1 1019109
08:00+17sw239783 0.0 1020269
11:00+23w256314 0.0 1019947
14:00+28nw684585 0.0 10172335
17:00+25nnw4857100 0.0 1018900
20:00+23nnw39740 0.4 1019443